Location: Miami, Florida
(25.6830°N, 80.1700°W)
Time: 12:25:55
(UTC-04:00)

Tiangong 1 - Pass Details

Date: 14 November 2017
Orbit: 284 x 308 km, 42.8° (Epoch: 22 November)

Event Time Altitude Azimuth Distance (km) Brightness Sun altitude
Exits shadow 06:04:34 13° 40° (NE) 995 3.5 -21.1°
Drops below altitude 10° 06:05:27 10° 60° (ENE) 1,131 4.1 -20.9°
Sets 06:08:05 0° 91° (E) 1,954 6.2 -20.3°
